Regional Weather Roundup
Issued by NWS

Home | Current Version | Previous Version | Graphics & Text | Print | Product List | Glossary On
Versions: 1 2 3 4 5 6 7 8 9 10 11 12 13 14 15 16 17 18 19 20 21 22 23 24 25 26 27 28 29 30 31 32 33 34 35 36 37 38 39 40 41 42 43 44 45 46 47 48 49 50
000
ASUS43 KIND 222110
RWRIN

WEATHER ROUNDUP FOR INDIANA
NATIONAL WEATHER SERVICE INDIANAPOLIS IN
500 PM EDT MON MAY 22 2017

NOTE: "FAIR" INDICATES FEW OR NO CLOUDS BELOW 12,000 FEET WITH NO
SIGNIFICANT WEATHER AND/OR OBSTRUCTIONS TO VISIBILITY.

* - STATION DOES NOT REPORT WEATHER SUCH AS PRECIPITATION OR FOG.

+ - STATION NOT QUALITY CONTROLLED BY THE NATIONAL WEATHER SERVICE.
    USE DATA WITH CAUTION...ESPECIALLY DEWPOINT AND RELATIVE
    HUMIDITY OBSERVATIONS.

INZ001>003-010>013-019-020-222200-
NORTHWEST INDIANA

CITY           SKY/WX    TMP DP  RH WIND       PRES   REMARKS
GARY /AIRPORT/ MOSUNNY   77  34  20 SW17      29.93F
KNOX *+        SUNNY     72  34  25 SW10G17   29.97F
LA PORTE +     SUNNY     72  45  38 SW14G20   29.97F
MICHIGAN CITY+ PTSUNNY   72  45  37 SW12G18   29.96F
MONTICELLO +   MOSUNNY   72  46  39 SW12      30.00S
RENSSELAER +   SUNNY     72  36  26 SW15      29.98F
VALPARAISO     MOSUNNY   73  45  36 SW17G24   29.96F

$$

LMZ046-743>745-222200-
SOUTHERN LAKE MICHIGAN

STATION/POSITION TIME  TEMP    WIND        PRES    WAVE
                       AIR SEA DIR/SP/G            HT
                 (UTC) (F)     (DEG/KT/KT) (MB)    (FT)
BURNS HARBOR     2040   71     210/ 14/ 21 1014.2F
MICHIGAN CITY    2040   69     200/ 14/ 16   N/A
5NW MICH CITY    2100   62 54  230/  6/  8   N/A     1

$$

INZ004-005-014>016-021>024-222200-
NORTH CENTRAL INDIANA

CITY           SKY/WX    TMP DP  RH WIND       PRES   REMARKS
ELKHART        MOSUNNY   72  46  40 SW17      29.97F
GOSHEN         MOSUNNY   69  47  45 SW9       29.98F
LOGANSPORT +   MOSUNNY   70  48  46 SW10      30.02S
PERU/GRISSOM   SUNNY     70  51  49 SW12      30.01F
ROCHESTER +    MOSUNNY   73  45  35 SW14      30.01S
SOUTH BEND     SUNNY     70  47  43 W13       29.97F
WARSAW +       MOSUNNY   68  46  45 SW7       30.00F

$$

INZ006>009-017-018-025>027-222200-
NORTHEAST INDIANA

CITY           SKY/WX    TMP DP  RH WIND       PRES   REMARKS
ANGOLA *+      MOSUNNY   70  63  78 W8        29.99F
AUBURN +       MOSUNNY   70  45  40 W8        30.01F
FORT WAYNE     MOSUNNY   69  48  47 SW10      30.02F
HUNTINGTON +   SUNNY    N/A N/A N/A SW8       30.02S
KENDALLVILLE + MOSUNNY   70  46  40 W14       30.00F

$$

INZ028-029-035-036-043>045-051>053-222200-
WEST CENTRAL INDIANA

CITY           SKY/WX    TMP DP  RH WIND       PRES   REMARKS
CRAWFORDSVL +  SUNNY     68  49  49 SW9       30.03F
GREENCASTLE +  SUNNY     70  45  40 S5        30.04F
LAFAYETTE      MOSUNNY   70  49  47 SW9       30.00F
TERRE HAUTE    SUNNY     72  45  37 S7        30.03F

$$

INZ030>032-037>040-046>048-054>057-064-065-222200-
CENTRAL INDIANA

CITY           SKY/WX    TMP DP  RH WIND       PRES   REMARKS
CP ATTERBURY + MOSUNNY   72  43  35 CALM      30.05S
COLUMBUS       PTSUNNY   70  39  32 S7        30.05F
FISHERS *+     SUNNY     70  50  49 S6        30.03F
FRANKFORT +    MOSUNNY   73  52  49 SW6       30.04F
GREENWOOD *+   SUNNY     70  41  35 S6        30.05S
INDIANAPOLIS   PTSUNNY   70  47  43 S5        30.03F
-EAGLE CREEK   SUNNY     70  45  40 S9        30.03F
KOKOMO +       MOSUNNY   70  50  49 S9G18     30.03F
MT COMFORT *+  SUNNY     70  46  43 S8        30.04F
SHELBYVILLE    MOSUNNY   72  42  34 MISG      30.03F
ZIONSVILLE +   SUNNY     69  47  46 SW8       30.04F

$$

INZ033-034-041-042-049-050-058-059-222200-
EAST CENTRAL INDIANA

CITY           SKY/WX    TMP DP  RH WIND       PRES   REMARKS
MUNCIE         SUNNY     71  41  33 VRB3      30.03F
RICHMOND +     SUNNY     68  43  40 CALM      30.06F

$$

INZ060-061-067>069-081>083-085>088-222200-
SOUTHWEST INDIANA

CITY           SKY/WX    TMP DP  RH WIND       PRES   REMARKS
EVANSVILLE     SUNNY     74  45  35 SE8       30.03F
HUNTINGBURG *+ SUNNY     71  51  49 S7        30.04F
WASHINGTON +   SUNNY     72  44  36 S7        30.03F

$$

INZ062-063-066-070>080-084-089>092-222200-
SOUTH CENTRAL AND SOUTHEAST INDIANA

CITY           SKY/WX    TMP DP  RH WIND       PRES   REMARKS
BEDFORD +      SUNNY     70  41  35 SE6       30.04F
BLOOMINGTON    SUNNY     72  44  36 SE9       30.04F
MADISON *+     MOSUNNY   68  45  42 SE6       30.07F
NORTH VERNON + MOSUNNY   68  45  42 CALM      30.05F
SEYMOUR +      CLOUDY    72  46  40 CALM      30.05F

$$





USA.gov is the U.S. government's official web portal to all federal, state and local government web resources and services.